Location: Hokitika
(42.7170°S, 170.9670°E)
Time: 02:11:42
(UTC+13:00)

SPOT 3 Rocket - Pass Details

Date: 24 January 2019
Orbit: 780 x 794 km, 98.8° (Epoch: 19 February)

Event Time Altitude Azimuth Distance (km) Brightness Sun altitude
Rises 21:57:15 0° 167° (SSE) 3,320 7.1 -8.5°
Reaches altitude 10° 21:59:36 10° 167° (SSE) 2,381 6.4 -8.8°
Maximum altitude 22:04:53 86° 253° (WSW) 802 3.7 -9.6°
Drops below altitude 10° 22:10:04 10° 343° (NNW) 2,342 5.8 -10.3°
Sets 22:12:21 0° 343° (NNW) 3,261 6.5 -10.6°
